Location: Clandonald
(53.5720°N, 110.7141°W)
Time: 07:54:34
(UTC+00:00)

Envisat - Visible Passes

Search period start: 25 March 2019 00:00
Search period end: 04 April 2019 00:00
Orbit: 764 x 766 km, 98.2° (Epoch: 24 March)

Date Brightness Start Highest point End Pass type
(mag) Time Alt. Az. Time Alt. Az. Time Alt. Az.
25 Mar 6.0 03:30:46 10° WSW 03:33:33 15° W 03:36:21 10° NW visible
26 Mar 5.3 02:52:01 10° SSW 02:56:19 27° W 03:00:40 10° NW visible
27 Mar 4.0 02:14:21 10° S 02:19:18 52° W 02:24:17 10° NNW visible
28 Mar 5.8 03:18:47 10° SW 03:22:11 18° W 03:25:35 10° NW visible
29 Mar 4.9 02:40:26 10° SSW 02:45:00 33° W 02:49:36 10° NNW visible
30 Mar 6.2 03:46:49 10° W 03:48:08 11° W 03:49:27 10° WNW visible
31 Mar 5.7 03:06:58 10° SW 03:10:49 21° W 03:14:41 10° NW visible
01 Apr 4.6 02:28:57 10° SSW 02:33:42 40° W 02:38:30 10° NNW visible
02 Apr 6.0 03:34:15 10° WSW 03:36:43 13° W 03:39:12 10° NW visible
03 Apr 5.4 02:55:16 10° SSW 02:59:28 26° W 03:03:41 10° NW visible
